Flag for U.S.A. Weather past 2 weeks in Nashville, Tennessee, U.S.A.

Now
73 °F

Mostly cloudy.


Feels Like: 70 °F
Forecast: 72 / 90 °F
Wind: 3 mph from Southwest

Location: Nashville International Airport

Current Time: Sep 3, 2014 at 2:41:19 AM

Latest Report: Sep 3, 2014 at 1:53 AM


Visibility: 10 mi

Pressure: 29.98 "Hg

Humidity: 94%

Dew point: 71 °F

Location of NashvilleLocation

Historic Weather in Nashville — Graph

°F

Nashville temperature yesterday

Maximum temperature yesterday: 91 °F (at 1:53 PM)
Minimum temperature yesterday: 71 °F (at 3:53 AM)
Average temperature yesterday: 79 °F

Past Weeks' High & Low Weather Summary

 TemperatureHumidityPressure
High95 °F (Aug 23, 3:53 PM)97% (Aug 20, 9:53 PM)30.15 "Hg (Aug 20, 9:53 PM)
Low70 °F (Aug 21, 4:53 AM)28% (Aug 29, 1:53 PM)29.82 "Hg (Aug 19, 5:53 PM)
Average80 °F75%30.01 "Hg
* Reported Aug 19 12:53 AM — Sep 3 12:53 AM, Nashville, Weather by CustomWeather, © 2014

Note: Actual official high and low records may vary slightly from our data, if they occured in-between our weather recording intervals... More about our weather records

Advertising

Nashville weather history for previous 24 hours

 ConditionsComfort  
Time TempWeatherWind HumidityBarometerVisibility
12:53 AM
Sep 3
74 °FMostly cloudy.6 mph94%30.00 "Hg10 mi
11:53 PM
Sep 2
74 °FMostly cloudy.6 mph94%30.00 "Hg10 mi
10:53 PM74 °FPassing clouds.7 mph94%30.01 "Hg10 mi
9:53 PM74 °FPassing clouds.No wind97%30.00 "Hg10 mi
8:53 PM74 °FThunderstorms. Mostly cloudy.No wind97%29.99 "Hg8 mi
7:53 PM74 °FPartly cloudy.7 mph94%29.95 "Hg10 mi
6:53 PM72 °FLight rain. Partly sunny.No wind91%29.97 "Hg8 mi
5:53 PM76 °FBroken clouds.No wind88%29.93 "Hg10 mi
4:53 PM88 °FThunderstorms. Broken clouds.9 mph59%29.91 "Hg10 mi
3:53 PM89 °FBroken clouds.3 mph59%29.91 "Hg10 mi
2:53 PM90 °FPartly sunny.7 mph54%29.94 "Hg10 mi
1:53 PM91 °FBroken clouds.10 mph54%29.96 "Hg10 mi
12:53 PM89 °FBroken clouds.7 mph57%29.99 "Hg10 mi
11:53 AM89 °FBroken clouds.9 mph57%30.00 "Hg10 mi
10:53 AM87 °FBroken clouds.8 mph61%30.02 "Hg10 mi
9:53 AM85 °FScattered clouds.9 mph65%30.02 "Hg10 mi
8:53 AM81 °FBroken clouds.8 mph72%30.03 "Hg10 mi
7:53 AM79 °FBroken clouds.8 mph77%30.03 "Hg10 mi
6:53 AM73 °FPartly sunny.6 mph90%30.04 "Hg10 mi
5:53 AM74 °FPassing clouds.5 mph85%30.04 "Hg10 mi
4:53 AM74 °FPassing clouds.No wind85%30.02 "Hg10 mi
3:53 AM71 °FPassing clouds.3 mph90%30.00 "Hg10 mi
2:53 AM72 °FClear.3 mph87%30.01 "Hg10 mi
Weather by CustomWeather, © 2014

See weather overviewHow to use our weather pages